Weather History for Findlay, OH

Change the Weather History Date:

Thursday, February 13, 2014

  Actual Average Record
Temperature  
Mean Temperature 16 °F -  
Max Temperature 30 °F 32 °F 66 °F (1990)
Min Temperature 3 °F 18 °F 0 °F (1979)
Degree Days  
Heating Degree Days 50    
Moisture  
Dew Point 9 °F    
Average Humidity 70    
Maximum Humidity 88    
Minimum Humidity 49    
Precipitation  
Precipitation 0.00 in - - ()
Sea Level Pressure  
Sea Level Pressure 29.83 in    
Wind  
Wind Speed 5 mph (ENE)    
Max Wind Speed 12 mph    
Max Gust Speed -    
Visibility 8 miles    
Events      
Averages and records for this station are not official NWS values.
T = Trace of Precipitation, MM = Missing Value Source: NWS Daily Summary

Daily Weather History Graph

Daily Weather History Graph

Search for Another Location

Airport:

Trip Planner

Search our weather history database for the weather conditions in past years. The results will help you decide how hot, cold, wet, or windy it might be!

Date:

Astronomy

Feb. 13, 2014 Rise Set
Actual Time 7:31 AM EST 6:06 PM EST
Civil Twilight 7:03 AM EST 6:35 PM EST
Nautical Twilight 6:31 AM EST 7:07 PM EST
Astronomical Twilight 5:59 AM EST 7:39 PM EST
Moon 5:14 PM EST (2/13) 6:24 AM EST (2/13)
Length of Visible Light 11h 31m
Length of Day
10h 35m
Waxing Gibbous, 98% of the Moon is Illuminated
Feb 13
Waxing Gibbous
Feb 14
Full
Feb 22
Last Quarter
Mar 1
New
Mar 8
First Quarter

Hourly Weather History & Observations

Time (EST) Temp. Windchill Dew Point Humidity Pressure Visibility Wind Dir Wind Speed Gust Speed Precip Events Conditions
12:53 AM 12.0 °F 4.1 °F 6.1 °F 77% 30.05 in - North 4.6 mph - N/A   Mostly Cloudy
1:53 AM 10.0 °F 3.6 °F 3.9 °F 76% 30.02 in 8.0 mi NNE 3.5 mph - N/A   Scattered Clouds
2:53 AM 9.0 °F 0.6 °F 3.9 °F 80% 30.01 in 6.0 mi NE 4.6 mph - N/A   Haze
3:53 AM 8.1 °F -0.5 °F 3.9 °F 83% 30.01 in 6.0 mi North 4.6 mph - N/A   Clear
4:53 AM 8.1 °F 1.4 °F 3.0 °F 80% 30.00 in 5.0 mi ENE 3.5 mph - N/A   Haze
5:53 AM 10.0 °F -0.9 °F 6.1 °F 84% 30.00 in 7.0 mi NNE 6.9 mph - N/A   Overcast
6:53 AM 10.0 °F 0.4 °F 6.1 °F 84% 29.99 in 9.0 mi East 5.8 mph - N/A   Mostly Cloudy
7:53 AM 5.0 °F -2.1 °F 1.9 °F 87% 29.98 in 6.0 mi North 3.5 mph - N/A   Clear
8:53 AM 3.9 °F - 1.0 °F 88% 29.96 in 3.0 mi Calm Calm - N/A   Clear
9:53 AM 15.1 °F 3.3 °F 9.0 °F 77% 29.93 in 9.0 mi East 9.2 mph - N/A   Clear
10:53 AM 17.1 °F 11.7 °F 9.0 °F 71% 29.91 in 9.0 mi NE 3.5 mph - N/A   Clear
11:53 AM 21.9 °F - 10.9 °F 63% 29.87 in 10.0 mi Calm Calm - N/A   Clear
12:53 PM 27.0 °F 19.5 °F 10.9 °F 51% 29.82 in 10.0 mi East 6.9 mph - N/A   Clear
1:53 PM 26.1 °F 17.6 °F 10.0 °F 51% 29.79 in 10.0 mi East 8.1 mph - N/A   Clear
2:53 PM 28.0 °F 24.2 °F 10.9 °F 49% 29.76 in 10.0 mi ENE 3.5 mph - N/A   Clear
3:53 PM 26.1 °F - 10.9 °F 53% 29.75 in 10.0 mi Calm Calm - N/A   Clear
4:53 PM 23.0 °F 15.8 °F 14.0 °F 68% 29.75 in 9.0 mi NW 5.8 mph - N/A   Clear
5:53 PM 23.0 °F - 14.0 °F 68% 29.71 in 9.0 mi Calm Calm - N/A   Partly Cloudy
6:53 PM 24.1 °F 18.2 °F 15.1 °F 69% 29.68 in 10.0 mi East 4.6 mph - N/A   Overcast
7:53 PM 24.1 °F 18.2 °F 12.9 °F 62% 29.66 in 10.0 mi SE 4.6 mph - N/A   Overcast
8:53 PM 23.0 °F 15.8 °F 14.0 °F 68% 29.65 in 9.0 mi SE 5.8 mph - N/A   Overcast
9:53 PM 24.1 °F 17.0 °F 14.0 °F 65% 29.61 in 8.0 mi SE 5.8 mph - N/A   Overcast
10:53 PM 23.0 °F 13.9 °F 14.0 °F 68% 29.58 in 8.0 mi South 8.1 mph - N/A   Overcast
11:53 PM 30.9 °F 21.7 °F 18.0 °F 59% 29.54 in 10.0 mi SW 11.5 mph - N/A   Overcast